sat.trackr.live / text

‹ back to catalog

STARLINK-35423

NORAD 65873 · 2025-223V

PAYLOAD ACTIVE UNKNOWN

§ Identity

Operator
Country
US
Launch date
2025-10-03
Launch site
AFWTR
Launch vehicle
Mass (kg)
RCS (m²)

Purposes: comms

External: N2YO · Heavens-Above · Gunter

§ Orbital elements

Epoch: 2026-05-25T04:00:03.998880Z

Period
93.85 min
Inclination
53.1584°
Eccentricity
0.0001155
Mean motion
15.34419993 rev/d
Perigee alt
461.9 km
Apogee alt
463.4 km
Semi-major
6,840.8 km
B*
1.6020e-4
RAAN
298.5348°
Arg perigee
73.6397°
Mean anomaly
169.9029°
Rev number
570

§ Raw data

STARLINK-354231 65873U 25223V   26145.16671295  .00005044  00000+0  16020-3 0  99922 65873  53.1584 298.5348 0001155  73.6397 169.9029 15.34419993  5709

JSON: /api/v1/satellites/65873 · /tle

For live sub-satellite position, see the globe view (requires WebGL).

§ Visibility from observer

Set your observer location to see the next 7 days of passes ≥ 10°. The values pass through the URL so the page stays shareable.

No JS? Fill the form by hand. The geolocation button needs JavaScript.